Regional Weather Roundup
Issued by NWS

Home | Current Version | Previous Version | Text Only | Print | Product List | Glossary Off
Versions: 1 2 3 4 5 6 7 8 9 10 11 12 13 14 15 16 17 18 19 20 21 22 23 24 25 26 27 28 29 30 31 32 33 34 35 36 37 38 39 40 41 42 43 44 45 46 47 48 49 50

000
ASUS43 KDTX 270310
RWRMI
MICHIGAN HOURLY REGIONAL WEATHER ROUNDUP
NATIONAL WEATHER SERVICE DETROIT/PONTIAC MI
1100 PM EDT MON JUN 26 2017

NOTE: "FAIR" INDICATES FEW OR NO CLOUDS BELOW 12,000 FEET WITH NO
SIGNIFICANT WEATHER AND/OR OBSTRUCTION TO VISIBILITY.

MIZ047>049-052>055-059>063-066>070-074>076-081>083-270400-
SOUTHEAST LOWER MICHIGAN

CITY           SKY/WX    TMP DP  RH WIND       PRES   REMARKS
ADRIAN         CLOUDY    60  45  57 NW9       30.02R
ALMA           PTCLDY    53  46  77 W8        29.99S
ANN ARBOR      CLOUDY    55  47  74 W7        29.99R
BAD AXE        CLOUDY    56  49  79 SW5       29.95R
CARO           PTCLDY    53  47  80 SW7       29.96R
DETROIT CITY   CLOUDY    57  49  74 NW5       29.98R
DETROIT        CLOUDY    58  51  78 W5        29.99R
FLINT          PTCLDY    55  45  68 W9        29.98R
GROSSE ILE     CLOUDY    61  46  59 W3        29.98R
HILLSDALE      CLEAR     54  41  62 NW12G17   30.02R
HOWELL         MOCLDY    53  46  77 W5        30.00R

CITY           SKY/WX    TMP DP  RH WIND       PRES   REMARKS
JACKSON        PTCLDY    55  43  63 W8        30.02R
LAMBERTVILLE   CLOUDY    59  50  73 W10       30.00R
LANSING        MOCLDY    56  43  61 W10       30.01R
LAPEER         MOCLDY    57  44  60 W5        29.98R
MASON          MOCLDY    55  46  70 W9        30.01R
MONROE         CLOUDY    60  49  66 W6        29.99R
MT. CLEMENS    MOCLDY    56  52  86 SW5       29.95F
PONTIAC        CLOUDY    56  48  74 W10       29.97R
PORT HOPE        N/A     59  47  64 W9        29.92S
PORT HURON     CLOUDY    54  46  76 NW3       29.96R
TRI CITIES     PTCLDY    55  48  77 W9        29.97S
MIDLAND        FAIR      54  46  73 W3        29.97R
TROY           CLOUDY    58  49  70 CALM      30.00S
SAGINAW HB     CLOUDY    55  45  67 W5        29.96S
$$
MIZ043>046-050>051-056>058-064>065-071>073-077>080-270400-
SOUTHWEST LOWER MICHIGAN

CITY           SKY/WX    TMP DP  RH WIND       PRES   REMARKS
BATTLE CREEK   CLEAR     51  45  79 SW7       30.04R
BENTON HARBOR  CLEAR     59  46  62 W6        30.05R
BIG RAPIDS     CLOUDY    51  46  80 NW3       30.00R
COLDWATER      CLEAR     53  42  66 W3        30.04R
FREMONT        FAIR      51  48  89 CALM      30.01R
HOLLAND        MOCLDY    59  48  67 NW7       30.03R
GRAND RAPIDS   CLEAR     54  48  80 W7        30.02R
IONIA          FAIR      52  45  77 W7        30.01R
KALAMAZOO      CLEAR     55  44  66 W5        30.05R
LUDINGTON      MOCLDY    52  51  95 CALM      30.02R
MARSHALL       CLEAR     50  44  79 W5        30.03R
MOUNT PLEASANT MOCLDY    54  46  75 W5        29.98R
MUSKEGON       MOCLDY    57  50  77 NW8       30.02R
SOUTH HAVEN    CLEAR     58  49  72 NW5       30.05R
$$
MIZ016>042-270400-
NORTHERN LOWER MICHIGAN

CITY           SKY/WX    TMP DP  RH WIND       PRES   REMARKS
ALPENA         LGT RAIN  52  49  89 NW13G22   29.95R
BEAVER ISLAND  PTCLDY    53  46  76 NW3       29.99R
BELLAIRE       CLOUDY    53  50  92 CALM      30.00R
CADILLAC       LGT RAIN  52  50  94 NW7       29.99S
CHARLEVOIX     CLOUDY    55  47  76 NW8       30.02R
FRANKFORT      FOG       50  48  92 CALM      30.01R VSB 1/2
GAYLORD        LGT RAIN  50  46  86 W3        29.98R
GRAYLING       LGT RAIN  50  47  92 NW10G16   29.99
HARBOR SPRINGS CLOUDY    52  52 100 CALM      29.98R
HOUGHTON LAKE  LGT RAIN  52  49  89 NW9       29.98R
MANISTEE       PTCLDY    53  50  89 CALM      30.01R
OSCODA         PTCLDY    55  47  74 W7        29.93S
PELLSTON       CLOUDY    51  49  92 W3        29.98R
ROGERS CITY    LGT RAIN  51  46  82 NW8G21    29.96R
TRAVERSE CITY  CLOUDY    54  50  86 W5        29.99R
$$
MIZ007>008-015-270400-
EASTERN UPPER MICHIGAN

CITY           SKY/WX    TMP DP  RH WIND       PRES   REMARKS
KINROSS        PTCLDY    47  43  86 NW10      29.96R
MACKINAC ISLAN PTCLDY    49  48  97 NW7       29.97R
NEWBERRY       PTCLDY    44  43  97 CALM      29.97S
S. S. MARIE    PTCLDY    49  43  80 W7        29.94S
MUNISING         N/A     48  47  96 S6        29.99R
$$
MIZ004>006-011>014-085-270400-
CENTRAL UPPER MICHIGAN

CITY           SKY/WX    TMP DP  RH WIND       PRES   REMARKS
MANISTIQUE     CLEAR     44  41  89 NW5       29.98S
ESCANABA       CLEAR     49  48  97 CALM      30.00R
MENOMINEE      CLEAR     53  50  89 W3        30.03R
SAWYER-GWINN   CLEAR     51  46  82 CALM      30.00R
$$
MIZ001>003-009>011-084-270400-
WESTERN UPPER MICHIGAN

CITY           SKY/WX    TMP DP  RH WIND       PRES   REMARKS
IRON MOUNTAIN  CLEAR     48  43  82 CALM      30.00R
HOUGHTON       CLEAR     52  45  77 NW9       29.99R
COPPER HARBOR    N/A     56  45  66 NW7       29.97R
IRONWOOD       CLEAR     52  48  86 SW5       30.04S
$$

ABBREVIATIONS USED IN REMARKS
   TC - TEMPERATURE IN CELSIUS
  WCI - WIND CHILL INDEX
   HX - HEAT INDEX
  VSB - VISIBILITY





USA.gov is the U.S. government's official web portal to all federal, state and local government web resources and services.